sat.trackr.live / text

‹ back to catalog

STARLINK-5557

NORAD 55770 · 2023-028AF

PAYLOAD ACTIVE UNKNOWN

§ Identity

Operator
Country
US
Launch date
2023-03-03
Launch site
AFWTR
Launch vehicle
Mass (kg)
RCS (m²)

Purposes: comms

External: N2YO · Heavens-Above · Gunter

§ Orbital elements

Epoch: 2026-09-20T13:42:05.781600Z

Period
96.11 min
Inclination
69.9982°
Eccentricity
0.0002215
Mean motion
14.98328688 rev/d
Perigee alt
570.5 km
Apogee alt
573.6 km
Semi-major
6,950.2 km
B*
-1.5040e-5
RAAN
93.1247°
Arg perigee
274.4962°
Mean anomaly
85.5944°
Rev number
19,572

§ Raw data

STARLINK-55571 55770U 23028AF  26263.57090025 -.00000272  00000+0 -15040-4 0  99922 55770  69.9982  93.1247 0002215 274.4962  85.5944 14.98328688195725

JSON: /api/v1/satellites/55770 · /tle

For live sub-satellite position, see the globe view (requires WebGL).

§ Visibility from observer

Set your observer location to see the next 7 days of passes ≥ 10°. The values pass through the URL so the page stays shareable.

No JS? Fill the form by hand. The geolocation button needs JavaScript.